Location: Gleizolles
(44.4833°N, 6.7667°E)
Time: 23:50:55
(UTC+00:00)

Vanguard 2 Rocket - Pass Details

Date: 23 June 2024
Orbit: 555 x 3302 km, 32.9° (Epoch: 24 July)

Event Time Altitude Azimuth Distance (km) Brightness Sun altitude
Rises 01:30:49 0° 230° (SW) 6,713 - -17.1°
Reaches altitude 10° 01:35:14 10° 225° (SW) 5,928 - -16.8°
Exits shadow 01:38:47 19° 219° (SW) 5,347 10.1 -16.5°
Maximum altitude 01:53:16 47° 159° (SSE) 3,953 9.8 -15.1°
Drops below altitude 10° 02:09:58 10° 93° (E) 5,550 11.3 -13.4°
Sets 02:13:55 0° 88° (E) 6,275 11.8 -13.0°
